When you browse on this site, cookies collect data to enhance your experience and personalize the content and advertising you see.
Visit our Privacy Policy to learn more. By continuing to use the site, you agree to this use of cookies and data.
  • Em Portugal
  • Lista de países
  • Para 7 dias
  • Temperatura da água
  • Mapas de satélite
  • Mapa do tempo
  • Widgets de tempo
  • user-avatar
    Iniciar Sessão

    Previsão horária em Stara Zagora

    Hoje, 22 Janeiro, Terça-feira

    Tempo Temperatura Precipitação Vento Pressão Humidade
    00:00 +2°C° 0 mm 2 m/s 745 mmHg 84%
    01:00 +1°C° 0 mm 2 m/s 745 mmHg 84%
    02:00 +1°C° 0 mm 2 m/s 745 mmHg 83%
    03:00 +1°C° 0 mm 2 m/s 744 mmHg 86%
    04:00 -1°C° 0 mm 2 m/s 744 mmHg 88%
    05:00 -1°C° 0 mm 2 m/s 744 mmHg 90%
    06:00 -1°C° 0.1 mm 2 m/s 744 mmHg 90%
    07:00 -1°C° 0.1 mm 2 m/s 743 mmHg 91%
    08:00 0°C° 0.1 mm 3 m/s 743 mmHg 91%
    09:00 0°C° 0.1 mm 3 m/s 743 mmHg 90%
    10:00 0°C° 0.1 mm 3 m/s 743 mmHg 89%
    11:00 +1°C° 0.1 mm 3 m/s 743 mmHg 88%
    12:00 +1°C° 0 mm 3 m/s 742 mmHg 88%
    13:00 +2°C° 0 mm 3 m/s 741 mmHg 87%
    14:00 +2°C° 0 mm 3 m/s 741 mmHg 87%
    15:00 +3°C° 0.1 mm 2 m/s 740 mmHg 89%
    16:00 +3°C° 0.1 mm 2 m/s 740 mmHg 91%
    17:00 +3°C° 0.1 mm 2 m/s 739 mmHg 92%
    18:00 +3°C° 0.1 mm 2 m/s 739 mmHg 94%
    19:00 +3°C° 0.1 mm 3 m/s 738 mmHg 95%
    20:00 +3°C° 0.1 mm 3 m/s 738 mmHg 96%
    21:00 +3°C° 0.1 mm 3 m/s 737 mmHg 96%
    22:00 +3°C° 0.1 mm 3 m/s 737 mmHg 97%
    23:00 +3°C° 0.1 mm 3 m/s 736 mmHg 97%

    Amanhã, 23 Janeiro, Quarta-feira

    Tempo Temperatura Precipitação Vento Pressão Humidade
    00:00 +3°C° 0.3 mm 3 m/s 735 mmHg 97%
    01:00 +3°C° 0.3 mm 3 m/s 735 mmHg 97%
    02:00 +4°C° 0.3 mm 2 m/s 734 mmHg 97%
    03:00 +5°C° 0.1 mm 2 m/s 733 mmHg 97%
    04:00 +5°C° 0.1 mm 2 m/s 733 mmHg 97%
    05:00 +6°C° 0.1 mm 1 m/s 732 mmHg 98%
    06:00 +6°C° 0 mm 1 m/s 732 mmHg 97%
    07:00 +5°C° 0 mm 1 m/s 732 mmHg 97%
    08:00 +4°C° 0 mm 0 m/s 732 mmHg 97%
    09:00 +5°C° 0 mm 0 m/s 733 mmHg 93%
    10:00 +6°C° 0 mm 0 m/s 733 mmHg 89%
    11:00 +8°C° 0 mm 1 m/s 733 mmHg 85%
    12:00 +9°C° 0 mm 1 m/s 733 mmHg 79%
    13:00 +11°C° 0 mm 1 m/s 732 mmHg 73%
    14:00 +12°C° 0 mm 1 m/s 732 mmHg 68%
    15:00 +11°C° 0 mm 1 m/s 732 mmHg 71%
    16:00 +9°C° 0 mm 2 m/s 732 mmHg 74%
    17:00 +9°C° 0 mm 2 m/s 731 mmHg 77%
    18:00 +8°C° 0 mm 2 m/s 731 mmHg 81%
    19:00 +8°C° 0 mm 2 m/s 731 mmHg 86%
    20:00 +7°C° 0 mm 2 m/s 731 mmHg 91%
    21:00 +8°C° 0.1 mm 3 m/s 731 mmHg 91%
    22:00 +8°C° 0.1 mm 3 m/s 731 mmHg 92%
    23:00 +7°C° 0.1 mm 4 m/s 731 mmHg 93%

    Depois de amanhã, 24 Janeiro, Quinta-feira

    Tempo Temperatura Precipitação Vento Pressão Humidade
    00:00 +7°C° 0.1 mm 4 m/s 731 mmHg 94%
    01:00 +7°C° 0.1 mm 4 m/s 731 mmHg 95%
    02:00 +7°C° 0.1 mm 4 m/s 730 mmHg 96%
    03:00 +7°C° 0.2 mm 4 m/s 730 mmHg 95%
    04:00 +7°C° 0.2 mm 4 m/s 729 mmHg 95%
    05:00 +7°C° 0.2 mm 4 m/s 728 mmHg 95%
    06:00 +7°C° 0.3 mm 4 m/s 728 mmHg 96%
    07:00 +7°C° 0.3 mm 4 m/s 728 mmHg 96%
    08:00 +7°C° 0.3 mm 4 m/s 728 mmHg 96%
    09:00 +6°C° 1.9 mm 4 m/s 728 mmHg 96%
    10:00 +6°C° 1.9 mm 5 m/s 728 mmHg 95%
    11:00 +6°C° 1.9 mm 5 m/s 729 mmHg 95%
    12:00 +6°C° 1.4 mm 4 m/s 728 mmHg 95%
    13:00 +6°C° 1.4 mm 4 m/s 728 mmHg 94%
    14:00 +7°C° 1.4 mm 3 m/s 728 mmHg 94%
    15:00 +7°C° 0.3 mm 3 m/s 727 mmHg 94%
    16:00 +7°C° 0.3 mm 3 m/s 727 mmHg 93%
    17:00 +7°C° 0.3 mm 3 m/s 727 mmHg 92%
    18:00 +7°C° 1.1 mm 3 m/s 728 mmHg 93%
    19:00 +7°C° 1.1 mm 3 m/s 728 mmHg 93%
    20:00 +7°C° 1.1 mm 3 m/s 728 mmHg 94%
    21:00 +7°C° 0.6 mm 3 m/s 728 mmHg 94%
    22:00 +7°C° 0.6 mm 2 m/s 729 mmHg 93%
    23:00 +7°C° 0.6 mm 2 m/s 729 mmHg 93%

    25 Janeiro, Sexta-feira

    Tempo Temperatura Precipitação Vento Pressão Humidade
    00:00 +6°C° 0.2 mm 2 m/s 729 mmHg 93%
    01:00 +6°C° 0.2 mm 2 m/s 730 mmHg 93%
    02:00 +7°C° 0.2 mm 1 m/s 730 mmHg 93%
    03:00 +7°C° 0.1 mm 1 m/s 730 mmHg 93%
    04:00 +7°C° 0.1 mm 1 m/s 730 mmHg 93%
    05:00 +7°C° 0.1 mm 1 m/s 730 mmHg 93%
    06:00 +7°C° 0 mm 1 m/s 731 mmHg 93%
    07:00 +7°C° 0 mm 1 m/s 731 mmHg 92%
    08:00 +5°C° 0 mm 2 m/s 731 mmHg 92%
    09:00 +6°C° 0.4 mm 2 m/s 732 mmHg 91%
    10:00 +7°C° 0.4 mm 3 m/s 732 mmHg 90%
    11:00 +7°C° 0.4 mm 3 m/s 732 mmHg 89%
    12:00 +7°C° 2.1 mm 3 m/s 731 mmHg 91%
    13:00 +7°C° 2.1 mm 3 m/s 731 mmHg 92%
    14:00 +7°C° 2.1 mm 3 m/s 731 mmHg 94%
    15:00 +7°C° 1.4 mm 3 m/s 730 mmHg 94%
    16:00 +7°C° 1.4 mm 3 m/s 730 mmHg 93%
    17:00 +7°C° 1.4 mm 3 m/s 730 mmHg 93%
    18:00 +7°C° 0.7 mm 3 m/s 730 mmHg 93%
    19:00 +6°C° 0.7 mm 4 m/s 730 mmHg 94%
    20:00 +6°C° 0.7 mm 4 m/s 729 mmHg 94%
    21:00 +6°C° 1.5 mm 5 m/s 729 mmHg 94%
    22:00 +6°C° 1.5 mm 5 m/s 729 mmHg 94%
    23:00 +6°C° 1.5 mm 5 m/s 729 mmHg 94%

    26 Janeiro, Sábado

    Tempo Temperatura Precipitação Vento Pressão Humidade
    00:00 +6°C° 1.8 mm 4 m/s 729 mmHg 95%
    01:00 +6°C° 1.8 mm 4 m/s 729 mmHg 95%
    02:00 +7°C° 1.8 mm 3 m/s 729 mmHg 96%
    03:00 +7°C° 0.4 mm 3 m/s 729 mmHg 96%
    04:00 +6°C° 0.4 mm 2 m/s 729 mmHg 96%
    05:00 +6°C° 0.4 mm 2 m/s 729 mmHg 96%
    06:00 +7°C° 0.1 mm 1 m/s 729 mmHg 95%
    07:00 +7°C° 0.1 mm 1 m/s 730 mmHg 95%
    08:00 +7°C° 0.1 mm 1 m/s 730 mmHg 94%
    09:00 +6°C° 0 mm 2 m/s 731 mmHg 90%
    10:00 +5°C° 0 mm 3 m/s 731 mmHg 87%
    11:00 +5°C° 0 mm 3 m/s 731 mmHg 84%
    12:00 +5°C° 0.4 mm 3 m/s 731 mmHg 82%
    13:00 +5°C° 0.4 mm 3 m/s 731 mmHg 81%
    14:00 +4°C° 0.4 mm 3 m/s 731 mmHg 79%
    15:00 +4°C° 0.4 mm 3 m/s 731 mmHg 80%
    16:00 +3°C° 0.4 mm 3 m/s 731 mmHg 81%
    17:00 +3°C° 0.4 mm 3 m/s 732 mmHg 81%
    18:00 +2°C° 0 mm 3 m/s 732 mmHg 81%
    19:00 +2°C° 0 mm 3 m/s 732 mmHg 81%
    20:00 +2°C° 0 mm 3 m/s 732 mmHg 81%
    21:00 +2°C° 0.5 mm 3 m/s 733 mmHg 82%
    22:00 +3°C° 0.5 mm 2 m/s 733 mmHg 83%
    23:00 +3°C° 0.5 mm 2 m/s 733 mmHg 84%

    27 Janeiro, Domingo

    Tempo Temperatura Precipitação Vento Pressão Humidade
    00:00 +2°C° 0.3 mm 2 m/s 733 mmHg 85%
    01:00 +2°C° 0.3 mm 2 m/s 733 mmHg 86%
    02:00 +2°C° 0.3 mm 2 m/s 733 mmHg 86%
    03:00 +2°C° 0 mm 2 m/s 733 mmHg 86%
    04:00 +2°C° 0 mm 2 m/s 733 mmHg 86%
    05:00 +3°C° 0 mm 1 m/s 733 mmHg 86%
    06:00 +3°C° 0 mm 1 m/s 733 mmHg 87%
    07:00 +3°C° 0 mm 1 m/s 733 mmHg 87%
    08:00 +3°C° 0 mm 1 m/s 733 mmHg 87%
    09:00 +4°C° 0 mm 1 m/s 734 mmHg 85%
    10:00 +4°C° 0 mm 1 m/s 734 mmHg 82%
    11:00 +5°C° 0 mm 1 m/s 734 mmHg 80%
    12:00 +6°C° 0 mm 1 m/s 734 mmHg 78%
    13:00 +6°C° 0 mm 1 m/s 734 mmHg 77%
    14:00 +7°C° 0 mm 1 m/s 733 mmHg 76%
    15:00 +7°C° 0 mm 1 m/s 734 mmHg 79%
    16:00 +6°C° 0 mm 1 m/s 734 mmHg 82%
    17:00 +6°C° 0 mm 1 m/s 734 mmHg 85%
    18:00 +6°C° 0 mm 1 m/s 734 mmHg 87%
    19:00 +5°C° 0 mm 1 m/s 735 mmHg 89%
    20:00 +5°C° 0 mm 1 m/s 735 mmHg 91%
    21:00 +5°C° 0 mm 1 m/s 735 mmHg 92%
    22:00 +5°C° 0 mm 1 m/s 736 mmHg 92%
    23:00 +5°C° 0 mm 1 m/s 736 mmHg 93%
    Mostrar mais